www.pogodaiklimat.ru

Погода и климат >> Архив погоды >> Норвегия >> Маяватн


ПОГОДА в Маяватн

  • Прогноз погоды в Маяватн
  • Монитор погоды в Маяватн

АРХИВ ПОГОДЫ в Маяватн

Время (UTC), дата Ветер
(напр.,м/с)
 
Видим.   Явления Облачность Т
(С)
Тd
(С)
f
(%)
Тe
(С)
Тes
(С)
Комфортность P
(гПа)
Po
(гПа)
Тmin
(С)
Tmax
(С)
R
(мм)
R24
(мм)
S
(см)
01 19.04 ЮЗ 2
{5}
н/о н/о +5.3 -1.1 63 +3 +3 1035.6 996.1
02 19.04 СЗ 1
{5}
н/о н/о +4.1 -1.0 69 +3 +3 1035.5 995.8
03 19.04 СВ 1
{7}
н/о н/о +3.8 -0.2 75 +3 +3 1036.0 996.2
04 19.04 СВ 1
{3}
н/о н/о +3.1 +0.2 81 +2 +2 1035.8 996.0
05 19.04 СЗ 1
{3}
н/о н/о +4.2 +1.4 82 +3 +3 1036.0 996.3
06 19.04 Ю 2
{7}
н/о н/о +5.4 +1.2 74 +3 +3 1035.9 996.4 +1.0 +6.1 75
07 19.04 штиль 0
{4}
н/о н/о +5.5 +1.1 73 +5 +5 1036.2 996.7
08 19.04 СВ 1
{2}
н/о н/о +7.6 +1.3 64 +7 +7 1036.2 997.0
09 19.04 ЮЗ 1
{3}
н/о н/о +8.0 +1.4 63 +8 +8 1036.5 997.3
10 19.04 З 1
{5}
н/о н/о +8.2 -0.3 55 +8 +8 1036.4 997.3
11 19.04 Ю 1
{2}
н/о н/о +10.7 -0.1 47 +11 +11 1035.9 997.1
12 19.04 Ю 2
{5}
н/о н/о +10.7 -0.7 45 +10 +10 1035.8 997.0
13 19.04 ЮЗ 2
{3}
н/о н/о +10.2 -1.2 45 +9 +9 1035.6 996.8
14 19.04 ЮЗ 2
{4}
н/о н/о +10.2 -1.2 45 +9 +9 1035.4 996.6
15 19.04 ЮЗ 1
{4}
н/о н/о +9.2 -0.6 50 +9 +9 1035.6 996.7
16 19.04 З 1
{3}
н/о н/о +10.6 -0.5 46 +11 +11 1035.2 996.4
17 19.04 ЮЗ 1
{2}
н/о н/о +8.0 -0.5 55 +8 +8 1035.3 996.2
18 19.04 З 1
{4}
н/о н/о +5.2 -0.8 65 +4 +4 1035.8 996.3 +4.9 +11.6
19 19.04 ЮВ 1
{2}
н/о н/о +4.2 -0.6 71 +3 +3 1036.0 996.3
20 19.04 СВ 1
{2}
н/о н/о +2.3 -0.6 81 +1 +1 1036.1 996.1
21 19.04 СВ 1
{2}
н/о н/о +1.9 -0.7 83 0 0 1036.0 996.0
22 19.04 ЮВ 1
{1}
н/о н/о +0.9 -1.0 87 -1 -1 1036.3 996.1
23 19.04 Ю 1
{2}
н/о н/о +0.6 -1.0 89 -1 -1 1036.1 995.9
00 20.04 СВ 1
{2}
н/о н/о -0.9 -2.2 91 -3 -3 1035.8 995.4
01 20.04 штиль 0
{1}
н/о н/о -1.5 -2.2 95 -3 -3 1035.5 995.0
02 20.04 СВ 1
{1}
н/о н/о -2.3 -3.0 95 -5 -5 1035.0 994.4
03 20.04 штиль 0
{1}
н/о н/о -2.6 -3.2 96 -4 -4 1034.4 993.8
04 20.04 СВ 1
{2}
н/о н/о -2.9 -3.6 95 -5 -5 1034.3 993.7
05 20.04 штиль 0
{1}
н/о н/о -1.4 -2.4 93 -3 -3 1033.8 993.4
06 20.04 штиль 0
{2}
н/о н/о +2.2 -1.6 76 +1 +1 1032.6 992.8 -2.9 +5.3 72
07 20.04 З 1
{1}
н/о н/о +6.7 -1.7 55 +6 +6 1031.6 992.4
08 20.04 З 1
{2}
н/о н/о +8.0 -1.5 51 +8 +8 1030.8 991.7
09 20.04 З 1
{2}
н/о н/о +9.1 -1.6 47 +9 +9 1030.0 991.2
10 20.04 ЮЗ 2
{3}
н/о н/о +11.2 -1.5 41 +10 +10 1029.2 990.7
11 20.04 Ю 2
{6}
н/о н/о +11.6 -1.8 39 +11 +11 1028.1 989.7
12 20.04 Ю 4
{7}
н/о н/о +11.3 -2.1 39 +10 +10 1027.9 989.5
13 20.04 ЮВ 2
{6}
н/о н/о +12.0 -2.2 37 +11 +11 1026.8 988.5
14 20.04 ЮВ 3
{6}
н/о н/о +10.9 -1.8 41 +9 +9 1026.2 987.8
15 20.04 З 1
{6}
н/о н/о +9.5 -1.5 46 +10 +10 1026.0 987.4
16 20.04 Ю 1
{5}
н/о н/о +8.8 -1.6 48 +9 +9 1025.0 986.4
17 20.04 В 1
{2}
н/о н/о +7.3 -0.9 56 +7 +7 1024.9 986.1
18 20.04 СВ 1
{6}
н/о н/о +7.2 -1.5 54 +7 +7 1024.0 985.2 +2.2 +12.6
19 20.04 ЮВ 1
{4}
н/о н/о +5.5 -0.7 64 +5 +5 1024.5 985.4
20 20.04 ЮЗ 3
{6}
н/о н/о +7.5 +2.8 72 +5 +5 1023.8 984.9
21 20.04 Ю 2
{6}
н/о н/о +6.9 +1.8 70 +5 +5 1023.3 984.5
22 20.04 Ю 4
{8}
н/о н/о +7.0 +1.7 69 +4 +4 1022.6 983.8
23 20.04 Ю 3
{8}
н/о н/о +6.7 +1.2 68 +4 +4 1022.1 983.3
00 21.04 Ю 3
{8}
н/о н/о +5.8 +3.5 85 +3 +3 1021.9 983.0 0.3
01 21.04 Ю 3
{7}
н/о н/о +5.2 +3.5 89 +2 +2 1021.5 982.5 0.4
02 21.04 ЮЗ 3
{7}
н/о н/о +5.1 +3.3 88 +2 +2 1021.1 982.1 0.5
03 21.04 Ю 3
{7}
н/о н/о +4.7 +3.1 89 +1 +1 1020.6 981.6 0.3
04 21.04 Ю 4
{8}
н/о н/о +4.8 +3.0 88 +1 +1 1020.2 981.2 0.1
05 21.04 Ю 3
{8}
н/о н/о +4.7 +2.9 88 +1 +1 1020.1 981.1
06 21.04 ЮЗ 2
{8}
н/о н/о +4.4 +3.1 91 +2 +2 1020.0 981.0 +4.2 +7.6 2 67
07 21.04 Ю 2
{5}
н/о н/о +4.9 +2.9 87 +2 +2 1019.6 980.6 0.2
08 21.04 ЮЗ 2
{5}
н/о н/о +5.7 +2.9 82 +3 +3 1019.8 980.9
09 21.04 ЮЗ 2
{4}
н/о н/о +4.9 +2.1 82 +2 +2 1019.3 980.4
10 21.04 ЮЗ 2
{3}
н/о н/о +6.0 +3.2 82 +4 +4 1019.0 980.2
11 21.04 ЮЗ 3
{7}
н/о н/о +5.5 +2.9 83 +2 +2 1019.0 980.2
12 21.04 З 2
{7}
н/о н/о +5.5 +1.8 77 +3 +3 1019.0 980.1
13 21.04 ЮЗ 2
{6}
н/о н/о +5.2 +2.9 85 +3 +3 1018.8 979.9 0.4
14 21.04 ЮЗ 1
{3}
н/о н/о +6.5 +3.1 79 +6 +6 1018.2 979.5 0.1
15 21.04 ЮЗ 1
{4}
н/о н/о +5.5 +3.5 87 +4 +4 1018.4 979.6 0.3
16 21.04 ЮЗ 2
{3}
н/о н/о +5.4 +2.9 84 +3 +3 1018.2 979.4 0.2
17 21.04 ЮЗ 3
{6}
н/о н/о +5.0 +2.5 84 +2 +2 1018.3 979.4
18 21.04 Ю 2
{6}
н/о н/о +4.5 +2.2 85 +2 +2 1018.0 979.1 +4.2 +6.5 1
19 21.04 ЮЗ 1
{5}
н/о н/о +4.5 +2.2 85 +3 +3 1018.0 979.0
20 21.04 Ю 2
{6}
н/о н/о +4.1 +2.1 87 +1 +1 1018.1 979.1
21 21.04 Ю 1
{2}
н/о н/о +3.6 +1.8 88 +2 +2 1018.3 979.2
22 21.04 штиль 0
{3}
н/о н/о +3.2 +2.0 92 +2 +2 1018.4 979.3
23 21.04 З 1
{1}
н/о н/о +2.3 +1.3 93 +1 +1 1018.2 978.9
00 22.04 ЮВ 3
{6}
н/о н/о +3.9 +2.3 89 0 0 1017.7 978.7
01 22.04 СЗ 1
{5}
н/о н/о +2.8 +1.3 90 +1 +1 1017.7 978.6
02 22.04 З 1
{3}
н/о н/о +2.9 +1.6 91 +1 +1 1017.5 978.3
03 22.04 Ю 2
{8}
н/о н/о +4.1 +1.5 83 +1 +1 1017.3 978.3
04 22.04 З 2
{4}
н/о н/о +3.2 +1.9 91 0 0 1017.3 978.3 0.3
05 22.04 ЮЗ 1
{3}
н/о н/о +3.5 +2.2 91 +2 +2 1017.5 978.4 0.7
06 22.04 ЮЗ 1
{8}
н/о н/о +3.6 +2.4 92 +2 +2 1017.7 978.6 +2.3 +4.7 1 62
07 22.04 ЮЗ 2
{4}
н/о н/о +3.8 +2.8 93 +1 +1 1018.1 979.1 0.6
08 22.04 З 1
{4}
н/о н/о +4.9 +3.4 90 +4 +4 1018.3 979.4 0.7
09 22.04 штиль 0
{2}
н/о н/о +5.8 +4.3 90 +5 +5 1018.4 979.6 0.5
10 22.04 штиль 0
{1}
н/о н/о +7.5 +5.0 84 +7 +7 1018.4 979.8 0.1
11 22.04 З 1
{2}
н/о н/о +7.3 +3.9 79 +6 +6 1018.6 980.0
12 22.04 З 1
{4}
н/о н/о +9.2 +3.4 67 +9 +9 1018.4 980.1
13 22.04 Ю 2
{5}
н/о н/о +12.1 +3.4 55 +11 +11 1017.8 979.9
14 22.04 Ю 2
{5}
н/о н/о +12.1 +3.1 54 +11 +11 1017.6 979.7
15 22.04 Ю 3
{6}
н/о н/о +12.0 +2.7 53 +11 +11 1018.0 980.0
16 22.04 ЮЗ 2
{7}
н/о н/о +10.7 +2.6 57 +10 +10 1017.7 979.6
17 22.04 штиль 0
{3}
н/о н/о +10.4 +2.8 59 +10 +10 1017.9 979.8
18 22.04 штиль 0
{7}
н/о н/о +8.0 +2.7 69 +7 +7 1018.4 979.9 +3.3 +12.9 2
19 22.04 СВ 1
{1}
н/о н/о +4.8 +1.3 78 +4 +4 1018.9 980.1
20 22.04 В 1
{2}
н/о н/о +1.8 -0.1 87 0 0 1019.7 980.3
21 22.04 штиль 0
{1}
н/о н/о +0.7 -0.4 92 -1 -1 1020.4 980.8
22 22.04 В 1
{1}
н/о н/о -0.4 -1.1 95 -3 -3 1020.8 981.1
23 22.04 штиль 0
{1}
н/о н/о -0.7 -1.3 96 -2 -2 1021.0 981.3
00 23.04 С 1
{2}
н/о н/о -1.0 -1.6 96 -3 -3 1021.4 981.5
01 23.04 штиль 0
{1}
н/о н/о -1.6 -2.1 96 -3 -3 1021.8 981.8
02 23.04 СВ 1
{2}
н/о н/о -1.8 -2.3 96 -4 -4 1022.1 982.1
03 23.04 штиль 0
{2}
н/о н/о -2.2 -2.7 96 -4 -4 1022.2 982.1
04 23.04 штиль 0
{1}
н/о н/о -2.1 -2.6 96 -3 -3 1022.3 982.3
05 23.04 штиль 0
{1}
н/о н/о -0.4 -1.0 96 -2 -2 1022.3 982.6
06 23.04 штиль 0
{2}
н/о н/о +4.2 +2.2 87 +3 +3 1021.9 982.7 -2.3 +8.0 58
07 23.04 З 1
{1}
н/о н/о +5.9 +1.5 73 +5 +5 1021.8 982.9
08 23.04 З 1
{1}
н/о н/о +8.5 +1.2 60 +8 +8 1021.6 983.0
09 23.04 З 1
{2}
н/о н/о +9.9 +1.3 55 +10 +10 1021.5 983.1
10 23.04 З 1
{2}
н/о н/о +11.7 +0.8 47 +12 +12 1021.4 983.3
11 23.04 З 1
{2}
н/о н/о +12.4 +0.8 45 +13 +13 1021.5 983.4
12 23.04 Ю 2
{5}
н/о н/о +14.7 -0.6 35 +15 +15 1021.4 983.7
13 23.04 ЮВ 1
{4}
н/о н/о +14.3 -2.1 32 +15 +15 1021.4 983.6
14 23.04 З 1
{4}
н/о н/о +13.9 -0.9 36 +15 +15 1021.0 983.2
15 23.04 Ю 2
{4}
н/о н/о +14.2 -2.2 32 +14 +14 1020.7 982.9
16 23.04 З 1
{4}
н/о н/о +14.2 -1.4 34 +15 +15 1020.5 982.7
17 23.04 Ю 1
{2}
н/о н/о +9.4 -1.0 48 +9 +9 1020.9 982.5
18 23.04 штиль 0
{4}
н/о н/о +7.8 -0.4 56 +7 +7 1021.1 982.5 +4.2 +15.2
19 23.04 штиль 0
{1}
н/о н/о +4.7 -0.9 67 +4 +4 1021.8 982.7
20 23.04 СВ 1
{2}
н/о н/о +1.8 -1.4 79 0 0 1022.2 982.7
21 23.04 СВ 1
{2}
н/о н/о +0.7 -1.8 83 -1 -1 1022.5 982.8
22 23.04 В 1
{1}
н/о н/о 0.0 -1.7 88 -2 -2 1022.5 982.6
23 23.04 В 1
{2}
н/о н/о -0.7 -2.1 90 -3 -3 1022.5 982.6
00 24.04 В 1
{2}
н/о н/о -1.8 -3.1 91 -4 -4 1022.6 982.6
01 24.04 Ю 1
{2}
н/о н/о -2.2 -3.3 92 -5 -5 1023.1 983.0
02 24.04 штиль 0
{1}
н/о н/о -2.2 -2.9 95 -4 -4 1023.1 983.0
03 24.04 С 1
{2}
н/о н/о -2.8 -3.5 95 -5 -5 1023.1 983.0
04 24.04 С 1
{2}
н/о н/о -2.5 -3.1 96 -5 -5 1023.2 983.1
05 24.04 штиль 0
{1}
н/о н/о -0.5 -1.9 90 -2 -2 1023.1 983.2
06 24.04 штиль 0
{2}
н/о н/о +2.2 -2.5 71 +1 +1 1022.9 983.5 -3.1 +7.8 55
07 24.04 штиль 0
{4}
н/о н/о +5.3 -1.6 61 +5 +5 1022.5 983.5
08 24.04 З 1
{1}
н/о н/о +7.1 -1.5 54 +7 +7 1022.5 983.7
09 24.04 З 1
{2}
н/о н/о +9.9 -1.4 45 +10 +10 1022.3 983.9
10 24.04 Ю 2
{5}
н/о н/о +13.8 -1.0 36 +14 +14 1021.6 983.8
11 24.04 В 3
{6}
н/о н/о +13.1 -0.9 38 +12 +12 1021.4 983.6
12 24.04 В 4
{8}
н/о н/о +12.8 -1.1 38 +11 +11 1021.6 983.6
13 24.04 ЮВ 5
{9}
н/о н/о +13.7 -1.4 35 +12 +12 1021.4 983.5
14 24.04 Ю 3
{8}
н/о н/о +14.1 -1.5 34 +13 +13 1021.2 983.4
15 24.04 Ю 2
{5}
н/о н/о +14.8 -1.3 33 +15 +15 1021.1 983.4
16 24.04 ЮВ 3
{7}
н/о н/о +13.7 -1.8 34 +13 +13 1021.2 983.3
17 24.04 ЮВ 1
{6}
н/о н/о +12.0 -1.5 39 +12 +12 1021.4 983.3
18 24.04 ЮВ 3
{9}
н/о н/о +11.0 -3.1 37 +10 +10 1021.6 983.4 +2.2 +14.9
19 24.04 штиль 0
{4}
н/о н/о +4.8 -1.4 64 +4 +4 1022.8 983.8
20 24.04 Ю 1
{2}
н/о н/о +2.7 -1.4 74 +1 +1 1023.3 983.9
21 24.04 Ю 1
{3}
н/о н/о +1.8 -1.8 77 0 0 1023.4 983.9
22 24.04 штиль 0
{2}
н/о н/о 0.0 -2.2 85 -1 -1 1023.9 984.1
23 24.04 СВ 1
{2}
н/о н/о -0.1 -2.2 86 -2 -2 1023.8 984.0
00 25.04 штиль 0
{4}
н/о н/о -1.3 -3.0 88 -2 -2 1023.9 983.9
01 25.04 Ю 1
{2}
н/о н/о -1.9 -3.2 91 -4 -4 1024.0 983.9
02 25.04 Ю 1
{3}
н/о н/о -1.4 -2.7 91 -4 -4 1023.9 983.8
03 25.04 СВ 1
{3}
н/о н/о -0.9 -2.7 88 -3 -3 1023.8 983.8
04 25.04 Ю 1
{2}
н/о н/о -0.9 -2.8 87 -3 -3 1023.8 983.9
05 25.04 ЮЗ 2
{5}
н/о н/о +2.1 -2.2 73 -1 -1 1023.1 983.6
06 25.04 Ю 2
{5}
н/о н/о +8.2 -1.6 50 +7 +7 1022.1 983.5 -2.0 +11.1 51
07 25.04 ЮЗ 3
{8}
н/о н/о +10.5 -3.2 38 +9 +9 1021.8 983.5
08 25.04 ЮЗ 3
{7}
н/о н/о +10.7 -3.3 37 +9 +9 1021.8 983.4
09 25.04 ЮЗ 3
{7}
н/о н/о +11.3 -3.6 35 +10 +10 1021.6 983.5
10 25.04 ЮВ 4
{7}
н/о н/о +12.7 -3.1 33 +11 +11 1021.6 983.6
11 25.04 ЮВ 6
{12}
н/о н/о +13.5 -3.2 31 +12 +12 1021.3 983.4
12 25.04 В 5
{12}
н/о н/о +12.4 -2.6 35 +11 +11 1021.2 983.3
13 25.04 З 2
{8}
н/о н/о +14.3 -2.1 32 +14 +14 1020.8 982.9
14 25.04 Ю 3
{9}
н/о н/о +14.1 -2.3 32 +13 +13 1020.3 982.5
15 25.04 Ю 6
{9}
н/о н/о +13.2 -1.9 35 +11 +11 1020.5 982.6
16 25.04 ЮВ 5
{10}
н/о н/о +13.7 -2.6 32 +12 +12 1020.0 982.3
17 25.04 ЮВ 3
{8}
н/о н/о +13.6 -2.7 32 +13 +13 1019.7 981.9
18 25.04 ЮВ 4
{10}
н/о н/о +13.2 -2.7 33 +12 +12 1019.8 981.9 +8.2 +14.4
19 25.04 Ю 4
{10}
н/о н/о +12.6 -2.8 34 +11 +11 1020.1 982.2
20 25.04 ЮВ 3
{7}
н/о н/о +11.3 -2.8 37 +10 +10 1020.7 982.6
21 25.04 ЮВ 5
{8}
н/о н/о +11.2 -2.2 39 +9 +9 1021.1 982.9
22 25.04 ЮВ 5
{9}
н/о н/о +11.7 -2.5 37 +10 +10 1021.2 983.1
23 25.04 Ю 4
{8}
н/о н/о +10.6 -2.1 41 +9 +9 1021.3 983.0
00 26.04 ЮВ 4
{10}
н/о н/о +10.2 -2.1 42 +8 +8 1021.2 982.9
01 26.04 ЮВ 2
{7}
н/о н/о +10.4 -2.2 41 +10 +10 1021.4 983.1

 

Местоположение метеостанции Маяватн (Норвегия): широта 65.17 долгота 13.37 высота над уровнем моря 319 м.

В архиве по умолчанию представлена погода в Маяватн за последнюю неделю. Архивные данные за месяц целиком и за предыдущие месяцы, начиная с января 2011 года, Вы можете получить, выбрав интересующий диапазон дат из раскрывающегося списка и нажав кнопку "Ввод!".


*Определитесь, кто Вы:
робот инопланетянин человек

Внимание! Время в таблицах - всемирное. Для получения местного времени необходимо прибавить поправку, которая равна 1 ч.

Смотрите также архив погоды в соседних городах и на ближайших метеорологических станциях:

Погода в Лаксфорсе (Норвегия) (50 км)
Погода в Намсскугане (Норвегия) (54 км)
Погода в Стекенйокке (Швеция) (54 км)
Погода в Брённёйсунн аэропорту (Норвегия) (62 км)
Погода на Сомна-Квалёйа (Норвегия) (65 км)
Погода в Мосьен аэропорту (Норвегия) (68 км)
Погода в Гиеласе (Швеция) (81 км)
Погода в Аддеде (Швеция) (85 км)
Погода в Гартлэнде (Норвегия) (85 км)
Погода в Хьётте (Норвегия) (85 км)

Пояснения к столбцам:

Ветер - указаны скорость ветра в м/с - средняя за 10 мин, порывы в срок и между сроками (в фигурных скобках) и направление, откуда дует ветер: С - северный, СВ - северо-восточный, В - восточный, ЮВ - юго-восточный, Ю - южный, ЮЗ - юго-западный, З - западный, СЗ - северо-западный.
Видимость - горизонтальная дальность видимости в метрах или километрах. При видимости от 1 до 10 км при отсутствии осадков обычно наблюдается дымка, при ухудшении видимости до 1 км и менее - туман. В сухую погоду видимость может ухудшаться дымом, пылью или мглою.
Явления - указаны атмосферные явления, наблюдавшиеся в срок или в последний час перед сроком; фигурными скобками обозначены явления, наблюдавшиеся между сроками (за 1-3 часа до срока); квадратными скобками обозначены град или гололедные отложения с указанием их диаметра в мм.
Облачность - указаны через наклонную черту общая и нижняя облачность в баллах и высота нижней границы облаков в метрах; квадратными скобками обозначены формы облаков: Ci - перистые, Cs - перисто-слоистые, Cc - перисто-кучевые, Ac - высококучевые, As - высокослоистые, Sc - слоисто-кучевые, Ns - слоисто-дождевые, Cu - кучевые, Cb - кучево-дождевые. Подробнее классификацию облаков см. в Атласе облаков (PDF).
T - Температура воздуха - температура, измеренная на высоте 2 м над землей.
Td - Температура точки росы - температура, при понижении до которой содержащийся в воздухе водяной пар достигнет насыщения.
f - Относительная влажность воздуха - влажноcть воздуха, измеренная на высоте 2 м над землей.
Te - Эффективная температура - температура, которую ощущает одетый по сезону человек в тени. Характеристика душности погоды. При расчете учитывается влияние влажности воздуха и скорости ветра на теплоощущения человека.
Tes - Эффективная температура на солнце - температура, которую ощущает человек, с поправкой на солнечный нагрев. Характеристика знойности погоды. Зависит от высоты солнца над горизонтом, облачности и скорости ветра. Ночью, в пасмурную погоду, а также при ветре 12 м/с и более поправка равна нулю.
P - Атмосферное давление - приведенное к уровню моря атмосферное давление.
Po - Атмосферное давление - измеренное на уровне метеостанции атмосферное давление.
Tmin - Минимальная температура - минимум температуры воздуха на высоте 2 м над землей.
Tmax - Максимальная температура - максимум температуры воздуха на высоте 2 м над землей.
R - Количество осадков - Количество выпавших осадков за период времени, мм. При наведении курсора мыши на число - период времени, за который выпало указанное количество осадков.
R24 - Количество осадков - Количество выпавших осадков за 24 часа, мм.
S - Снежный покров - Высота снежного покрова, см. При наведении курсора мыши на число - состояние снежного покрова и степень покрытия местности в баллах.